Regional Weather Roundup
Issued by NWS Northern Indiana

Home | Current Version | Previous Version | Graphics & Text | Print | Product List | Glossary On
Versions: 1 2 3 4 5 6 7 8 9 10 11 12 13 14 15 16 17 18 19 20 21 22 23 24 25 26 27 28 29 30 31 32 33 34 35 36 37 38 39 40 41 42 43 44 45 46 47 48 49 50
000
ASUS43 KIWX 270100
RWRIWX

KIWX WEATHER ROUNDUP
NATIONAL WEATHER SERVICE NORTHERN INDIANA
900 PM EDT MON JUN 26 2017

NOTE: "FAIR" INDICATES FEW OR NO CLOUDS BELOW 12,000 FEET WITH NO
SIGNIFICANT WEATHER AND/OR OBSTRUCTIONS TO VISIBILITY.

* THESE STATIONS ARE NOT UNDER NWS QUALITY CONTROL. THEY ALSO MAY NOT
  REPORT WEATHER SUCH AS PRECIPITATION OR FOG.

INZ001>027-270200-
NORTHERN INDIANA

CITY           SKY/WX    TMP DP  RH WIND       PRES   REMARKS
GARY*          PTCLDY    64  48  55 N7        30.05S
MICHIGAN CITY* CLOUDY    61  46  59 N3        30.05S
KNOX*          PTCLDY    61  37  41 N9        30.04S
SOUTH BEND     CLOUDY    60  46  59 N10       30.05R
ELKHART*       CLEAR     61  45  55 NW6       30.04R
GOSHEN         CLOUDY    63  43  48 NW10      30.03R
MONTICELLO*    PTCLDY    61  52  72 W10       30.03S
FORT WAYNE     CLOUDY    59  53  80 SW9       30.03S
PERU/GRISSOM   CLOUDY    58  53  81 SW6       30.03R

$$
INZ028>050-270200-
CENTRAL INDIANA

CITY           SKY/WX    TMP DP  RH WIND       PRES   REMARKS
LAFAYETTE      CLOUDY    57  54  89 W7        30.05F
KOKOMO*        CLOUDY    59  52  77 SW10      30.05F
MUNCIE*        LGT RAIN  59  51  75 W8        30.07S
INDIANAPOLIS   LGT RAIN  58  53  84 NW10      30.09R

$$
MIZ043>046-050>051-056>058-064>065-071>073-077>080-270200-
SOUTHWEST LOWER MICHIGAN

CITY           SKY/WX    TMP DP  RH WIND       PRES   REMARKS
BATTLE CREEK   PTCLDY    58  44  60 W14       30.02S
BENTON HARBOR  PTCLDY    61  46  57 VRB5      30.03S
COLDWATER*     MOCLDY    61  42  49 NW12G17   30.01S
HILLSDALE*     MOCLDY    61  41  48 NW14      30.00R
HOLLAND        PTCLDY    59  46  62 NW8       30.03S
GRAND RAPIDS   MOCLDY    57  45  64 NW14      30.00S
KALAMAZOO      PTCLDY    59  42  53 NW13      30.03R
STURGIS*       CLOUDY    60  44  55 NW7       30.02R
THREE RIVERS*  MOCLDY    60  43  53 NW15      30.03S

$$
OHZ001>008-015>018-024>025-270200-
NORTHWEST OHIO

CITY           SKY/WX    TMP DP  RH WIND       PRES   REMARKS
DEFIANCE       PTCLDY    57  50  77 SW7       30.01F
FINDLAY        LGT RAIN  56  50  80 SW10      30.03R
TOLEDO EXPRESS CLOUDY    60  50  69 SW9       29.99S
TOLEDO METCALF CLOUDY    61  54  77 SW10      30.00S
LIMA           CLOUDY    58  51  78 W8        30.04F

$$
AND FOR LAKE MICHIGAN COASTAL AND OPEN LAKE BUOY OBSERVATIONS

STATION/POSITION TEMP    WIND        PRES    VSBY  WAVE
                 AIR SEA DIR/SP/G                  HT/PER
                 (F)     (DEG/KT/KT) (MB)    (MI)  (FT/S)
CALUMET HARBOR    65     300/  7/ 11 1016.7S
MICHIGAN CITY     62     330/ 17/ 20   N/A
BURNS HARBOR      63     350/ 12/ 14 1017.6S
SOUTH LAKE BUOY   60 61  340/ 14/ 16 1016.5          3/ 5
4 MI NW BRIDGMAN  63 69   10/ 14/ 19 1017.3R         4/ 4
MICHIGAN CITY     63 66  340/ 17/ 21   N/A           4/ 4

$$
&&




USA.gov is the U.S. government's official web portal to all federal, state and local government web resources and services.